Regional Weather Roundup
Issued by NWS Charleston, SC

Current Version | Previous Version | Text Only | Print | Product List | Glossary Off
Versions: 1 2 3 4 5 6 7 8 9 10 11 12 13 14 15 16 17 18 19 20 21 22 23 24 25 26 27 28 29 30 31 32 33 34 35 36 37 38 39 40 41 42 43 44 45 46 47 48 49 50

000
ASUS42 KCHS 190812
RWRCHS

Regional Weather Roundup
National Weather Service Charleston SC
300 AM EST FRI JAN 19 2018

NOTE: "fair" indicates few or no clouds below 12,000 feet with no
significant weather and/or obstructions to visibility.

Not all stations are quality controlled. Use data with caution,
especially dewpoint observations.

SCZ027-030-031-034>040-042>050-190900-
...Southeast South Carolina...

CITY           SKY/WX    TMP DP  RH WIND       PRES   REMARKS
N Charleston   FAIR      32  17  54 W3        30.29F
Waterfront Prk NOT AVBL
Mount Pleasant FAIR      30  23  74 CALM      30.29F
Johns Island   FAIR      30  21  69 CALM      30.30S
Pinopolis        N/A     36  21  55 SW5       30.21F WCI  32
Moncks Corner  FAIR      27  18  69 CALM      30.29S
Summerville    FAIR      27  21  80 CALM      30.29F
Beaufort MCAS  FAIR      27  20  75 CALM      30.31S
Beaufort Arpt  FAIR      32  21  64 SW5       30.30F WCI  27
Hilton Head Is FAIR      34  16  47 W5        30.32F WCI  30
Walterboro     FAIR      27  21  80 CALM      30.30F
Allendale      FAIR      27  21  80 CALM      30.28F

...Southern Midlands and Pee Dee...

CITY           SKY/WX    TMP DP  RH WIND       PRES   REMARKS
Georgetown     FAIR      28  21  74 SW3       30.29F
Kingstree      FAIR      23  21  93 CALM      30.28S
Orangeburg     FAIR      28  18  66 CALM      30.27F
Barnwell         N/A     27  19  74 CALM      30.28S
Aiken          FAIR      28  18  64 SW5       30.28F WCI  23
Manning        FAIR      27  21  80 MISG      30.28S
Columbia       FAIR      26  21  81 W3        30.26F
Sumter         FAIR      29  15  56 SW5       30.24F WCI  24
Florence       FAIR      27  19  72 CALM      30.26F
Myrtle Beach   FAIR      32  21  64 W9        30.28F WCI  24
N Myrtle Beach FAIR      30  20  66 W3        30.26F

$$

GAZ063-065-086>088-099>101-113>116-118-119-134>141-150-190900-
...Southeast Georgia...

CITY           SKY/WX    TMP DP  RH WIND       PRES   REMARKS
Savannah Arpt  FAIR      27  18  69 CALM      30.33S
Hunter AAF     FAIR      26  20  76 W6        30.30S WCI  20
Fort Stewart   FAIR      27  21  76 CALM      30.31F
Statesboro     FAIR      25  20  82 CALM      30.31S
Sylvania       FAIR      28  24  84 CALM      30.31S
Claxton        FAIR      26  24  92 CALM      30.33S

...CSRA, Central and far Southeast Georgia...

CITY           SKY/WX    TMP DP  RH WIND       PRES   REMARKS
Thomson        FAIR      26  17  70 W5        30.33R WCI  20
Augusta-Bush   FAIR      23  18  81 CALM      30.29S
Augusta-Daniel FAIR      33  14  45 CALM      30.27F
Swainsboro     FAIR      30  21  69 CALM      30.31F
Vidalia        FAIR      30  21  69 CALM      30.32F
Eastman        FAIR      25  18  75 CALM      30.35F
Hazlehurst     FAIR      29  20  68 CALM      30.31F
Alma           FAIR      25  22  88 CALM      30.33F
Waycross       FAIR      26  20  79 CALM      30.34S
Jesup          NOT AVBL
Baxley         FAIR      27  23  86 CALM      30.32F
Brunswick      FAIR      28  23  80 CALM      30.34F
Saint Simons   FAIR      30  24  78 CALM      30.33F

$$

SCZ027-028-034-036>038-045-046-048>050-GAZ119-141-190900-
...Lake and Supplemental Coastal Observations...

STATION/POSITION TIME  TEMP    WIND        PRES    WAVE   SWELL
                       AIR SEA DIR/SP/G            HT/PER HT/PER/DIR
                 (UTC) (F)     (DEG/KT/KT) (MB)    (FT/S) (FT/S/D)
Winyah Bay       NOT AVBL
Lake Murray      0720   37     250/  5/  7 1023.7
ACE Basin NERRS  0645   28        CALM     1026.0
Fort Pulaski     0736   37 45  260/  4/  6 1026.9S
Sapelo Island    0700   35     270/  4     1027.0

$$

ANZ835-935-AMZ111-154-330-350-352-354-370-450-454-472-190900-
...C-MAN and Buoy Observations...

STATION/POSITION TIME  TEMP    WIND        PRES    WAVE   SWELL
                       AIR SEA DIR/SP/G            HT/PER HT/PER/DIR
                 (UTC) (F)     (DEG/KT/KT) (MB)    (FT/S) (FT/S/D)
Buoy 41004       0750   50 69  290/ 14/ 16 1025.5F   3/ 4   2/100/11
Buoy 41008       0750   45 51  260/ 10/ 12 1027.0R   2/11   2/ 40/11
Folly Beach CMAN 0700   35     270/  3/  3 1026.4F
Capers Nearshore 0708   38 47  280/ 12/ 14 1025.7F
Fripp Nearshore  0708   38 45  300/  8/ 10 1025.5R


STATION/POSITION TIME  TEMP    WIND        PRES    WAVE   SWELL
                       AIR SEA DIR/SP/G            HT/PER HT/PER/DIR
                 (UTC) (F)     (DEG/KT/KT) (MB)    (FT/S) (FT/S/D)
5E St. Marys GA  0730      47                N/A     2/11   2/ 90/11
Frying Pan Buoy  0750   48 64  290/ 17/ 21 1024.7F   4/ 4   2/ 90/11
Buoy 41025       0800   42     300/ 16/ 19 1023.3
Cape Lookout NC  0700          290/ 16/ 20 1023.6F
Buoy 41002       0750   56 70  330/ 10/ 14 1023.7F   9/11  10/ 30/11
Buoy 41010       NOT AVBL
St Augustine FL  0800   36 48  260/  7/  9 1027.6F


$$



USA.gov is the U.S. government's official web portal to all federal, state and local government web resources and services.